Skip Page Navigation
NASA JPL Caltech
NASA Logo - Jet Propulsion Laboratory + View the NASA Portal
+ Center for Near-Earth Object Studies
JPL Home Earth Solar System Stars & Galaxies Technology
JPL Solar System Dynamics
BODIES ORBITS EPHEMERIDES TOOLS PHYSICAL DATA DISCOVERY FAQ SITE MAP

Significant website upgrade scheduled for September 27. More details available here.

JPL Small-Body Database Browser
Search: [ help ]  
305043 (2007 UP1)
Classification: Main-belt Asteroid          SPK-ID: 2305043
Ephemeris | Orbit Diagram | Orbital Elements | Mission Design | Physical Parameters | Discovery Circumstances ]

[ show orbit diagram ]
Orbital Elements at Epoch 2459396.5 (2021-Jul-01.0) TDB
Reference: JPL 9 (heliocentric ecliptic J2000)
 Element Value Uncertainty (1-sigma)   Units 
e .1553215638590593 7.2089e-08  
a 2.443345433816702 2.1882e-08 au
q 2.0638411999884 1.7165e-07 au
i 4.508430147744436 7.3637e-06 deg
node 22.59227314556854 8.5872e-05 deg
peri 357.4436196906254 9.238e-05 deg
M 216.7032370287597 4.052e-05 deg
tp 2459951.776906801284
(2023-Jan-07.27690680)
0.00016323 TDB
period 1395.004899647189
3.82
1.874e-05
5.131e-08
d
yr
n .2580636097343083 3.4667e-09 deg/d
Q 2.822849667645004 2.528e-08 au
  Orbit Determination Parameters
   # obs. used (total)      150  
   data-arc span      6442 days (17.64 yr)  
   first obs. used      2003-09-21  
   last obs. used      2021-05-11  
   planetary ephem.      DE441  
   SB-pert. ephem.      SB441-N16  
   condition code      0  
   norm. resid. RMS      .57632  
   source      ORB  
   producer      Otto Matic  
   solution date      2021-Jul-09 05:51:22  

Additional Information
 Earth MOID = 1.06555 au 
 Jupiter MOID = 2.63945 au 
 T_jup = 3.479 
[ hide covariance matrix ]
Orbital Elements at Epoch 2457839.5 (2017-Mar-27.0) TDB
Reference: JPL 9 (heliocentric ecliptic J2000)
 Element Value Uncertainty (1-sigma)   Units 
e .1541214143494993 7.1905e-08  
q 2.068856556518404 1.7106e-07 au
tp 2457158.473645879552
(2015-May-15.97364588)
0.00013427 TDB
node 22.62563120678507 8.578e-05 deg
peri 357.1033768060889 9.2396e-05 deg
i 4.510364122065979 7.3629e-06 deg
  Orbit Determination Parameters
   # obs. used (total)      150  
   data-arc span      6442 days (17.64 yr)  
   first obs. used      2003-09-21  
   last obs. used      2021-05-11  
   planetary ephem.      DE441  
   SB-pert. ephem.      SB441-N16  
   condition code      0  
   norm. resid. RMS      .57632  
   source      ORB  
   producer      Otto Matic  
   solution date      2021-Jul-09 05:51:22  

Additional Information
 Jupiter MOID = 2.63945 au 
 T_jup = 3.479 
Orbit Covariance (6×6)
  e q tp node peri i
e 5.170363048873335E-15 -1.223197517367591E-14 3.171714600991842E-12 -6.236905816550877E-15 6.678683854006032E-13 -2.381386654661269E-15
q -1.223197517367591E-14 2.926143219034749E-14 -5.844080733959047E-12 1.358991135581781E-14 -1.136247139115179E-12 3.996139897236873E-15
tp 3.171714600991842E-12 -5.844080733959047E-12 1.802811048483611E-8 -7.756126107662945E-12 4.639475279784638E-9 -1.820270233080244E-11
node -6.236905816550877E-15 1.358991135581781E-14 -7.756126107662945E-12 7.3581565834074E-9 -7.337539880422916E-9 3.464503291818093E-11
peri 6.678683854006032E-13 -1.136247139115179E-12 4.639475279784638E-9 -7.337539880422916E-9 8.537071450057432E-9 -3.925882732075025E-11
i -2.381386654661269E-15 3.996139897236873E-15 -1.820270233080244E-11 3.464503291818093E-11 -3.925882732075025E-11 5.421214832073935E-11

Ephemeris | Orbit Diagram | Orbital Elements | Mission Design | Physical Parameters | Discovery Circumstances ]

Physical Parameter Table
Parameter Symbol Value Units Sigma Reference Notes
absolute magnitude H 17.38   n/a E2021B25  

305043 (2007 UP1)          Discovered 2007-Oct-16 by BATTeRS at Bisei SG Center
Reference: 20111110/Numbers.arcLast Updated: 2011-11-14

Alternate Designations
 2007 UP1 = 2003 SB183 
Ephemeris | Orbit Diagram | Orbital Elements | Mission Design | Physical Parameters | Discovery Circumstances ]
ABOUT SSD CREDITS/AWARDS PRIVACY/COPYRIGHT GLOSSARY LINKS
FirstGov 2021-Sep-24 20:48 UT
(server date/time)  
NASA Home Page
Site Manager:   Ryan S. Park
Webmaster  Alan B. Chamberlin